Weather History for Camarillo, CA

Change the Weather History Date:

Friday, June 7, 2013

  Actual Average Record
Temperature  
Mean Temperature 68 °F 64 °F  
Max Temperature 73 °F 72 °F 80 °F (1954)
Min Temperature 62 °F 55 °F 43 °F (1950)
Degree Days  
Heating Degree Days 0 2  
Month to date heating degree days 0 14  
Since 1 June heating degree days 0 14  
Since 1 July heating degree days 1424 1957  
Cooling Degree Days 3 0  
Month to date cooling degree days 20 0  
Year to date cooling degree days 126 31  
Since 1 June cooling degree days 20 0  
Growing Degree Days 17 (Base 50)    
Moisture  
Dew Point 56 °F    
Average Humidity 68    
Maximum Humidity 78    
Minimum Humidity 57    
Precipitation  
Precipitation 0.00 in 0.00 in 0.02 in (1979)
Month to date precipitation T 0.02  
Year to date precipitation 2.15 10.95  
Since 1 July precipitation 4.86 15.19  
Sea Level Pressure  
Sea Level Pressure 29.87 in    
Wind  
Wind Speed 5 mph (SW)    
Max Wind Speed 13 mph    
Max Gust Speed 18 mph    
Visibility 10 miles    
Events      
T = Trace of Precipitation, MM = Missing Value Source: NWS Daily Summary

Daily Weather History Graph

Daily Weather History Graph

Search for Another Location

Airport:

Trip Planner

Search our weather history database for the weather conditions in past years. The results will help you decide how hot, cold, wet, or windy it might be!

Date:

Astronomy

Jun. 07, 2013 Rise Set
Actual Time 5:44 AM PDT 8:06 PM PDT
Civil Twilight 5:15 AM PDT 8:35 PM PDT
Nautical Twilight 4:39 AM PDT 9:11 PM PDT
Astronomical Twilight 4:00 AM PDT 9:50 PM PDT
Moon 5:07 AM PDT (6/7) 7:27 PM PDT (6/7)
Length of Visible Light 15h 20m
Length of Day
14h 22m
Waning Crescent, 1% of the Moon is Illuminated
Jun 7
Waning Crescent
Jun 8
New
Jun 16
First Quarter
Jun 23
Full
Jun 29
Last Quarter

Hourly Weather History & Observations

Time (PDT) Temp. Dew Point Humidity Pressure Visibility Wind Dir Wind Speed Gust Speed Precip Events Conditions
12:55 AM 64.0 °F 55.0 °F 73% 29.93 in 10.0 mi Calm Calm - N/A   Overcast
1:55 AM 63.0 °F 55.0 °F 75% 29.91 in 10.0 mi NW 3.5 mph - N/A   Overcast
2:42 AM 62.6 °F 55.4 °F 77% 29.88 in 10.0 mi West 4.6 mph - N/A   Overcast
2:55 AM 63.0 °F 55.0 °F 75% 29.90 in 10.0 mi SW 4.6 mph - N/A   Overcast
3:55 AM 63.0 °F 55.0 °F 75% 29.89 in 10.0 mi West 3.5 mph - N/A   Overcast
4:55 AM 63.0 °F 55.0 °F 75% 29.88 in 10.0 mi SSW 3.5 mph - N/A   Overcast
5:55 AM 63.0 °F 55.0 °F 75% 29.89 in 9.0 mi SW 3.5 mph - N/A   Overcast
6:55 AM 63.0 °F 55.0 °F 75% 29.90 in 7.0 mi WSW 4.6 mph - N/A   Overcast
7:55 AM 63.0 °F 55.0 °F 75% 29.90 in 7.0 mi Calm Calm - N/A   Overcast
8:55 AM 64.0 °F 55.9 °F 75% 29.90 in 7.0 mi Calm Calm - N/A   Overcast
9:55 AM 64.9 °F 55.0 °F 70% 29.90 in 7.0 mi Calm Calm - N/A   Overcast
10:55 AM 66.0 °F 55.9 °F 70% 29.91 in - SW 3.5 mph - N/A   Overcast
11:55 AM 66.9 °F 55.9 °F 68% 29.90 in 9.0 mi WSW 5.8 mph - N/A   Overcast
12:55 PM 69.1 °F 55.9 °F 63% 29.89 in 10.0 mi SSW 8.1 mph - N/A   Mostly Cloudy
1:22 PM 69.8 °F 55.4 °F 60% 29.86 in 10.0 mi SSW 6.9 mph - N/A   Scattered Clouds
1:55 PM 71.1 °F 55.9 °F 59% 29.87 in 10.0 mi South 6.9 mph - N/A   Clear
2:55 PM 72.0 °F 55.9 °F 57% 29.85 in 10.0 mi SW 8.1 mph - N/A   Clear
3:55 PM 71.1 °F 57.0 °F 61% 29.83 in 10.0 mi SSW 12.7 mph - N/A   Partly Cloudy
4:55 PM 71.1 °F 57.0 °F 61% 29.83 in 10.0 mi SW 9.2 mph - N/A   Partly Cloudy
5:48 PM 69.8 °F 57.2 °F 64% 29.80 in 10.0 mi SW 10.4 mph - N/A   Mostly Cloudy
5:55 PM 69.1 °F 57.0 °F 65% 29.82 in 10.0 mi SW 9.2 mph - N/A   Mostly Cloudy
6:22 PM 66.2 °F 55.4 °F 68% 29.79 in 10.0 mi SSW 6.9 mph - N/A   Mostly Cloudy
6:55 PM 66.0 °F 57.0 °F 73% 29.83 in 10.0 mi SSW 4.6 mph - N/A   Overcast
7:55 PM 66.0 °F 55.9 °F 70% 29.84 in 10.0 mi Calm Calm - N/A   Overcast
8:55 PM 64.9 °F 57.0 °F 75% 29.85 in 10.0 mi SSW 4.6 mph - N/A   Overcast
9:21 PM 64.4 °F 55.4 °F 73% 29.83 in 10.0 mi West 5.8 mph - N/A   Overcast
9:55 PM 64.0 °F 55.9 °F 75% 29.87 in 10.0 mi West 6.9 mph - N/A   Overcast
10:55 PM 64.0 °F 55.9 °F 75% 29.87 in 10.0 mi WSW 3.5 mph - N/A   Overcast
11:55 PM 63.0 °F 55.9 °F 78% 29.86 in 10.0 mi WNW 3.5 mph - N/A   Overcast